TimeMDT,TemperatureF,Dew PointF,Humidity,Sea Level PressureIn,VisibilityMPH,Wind Direction,Wind SpeedMPH,Gust SpeedMPH,PrecipitationIn,Events,Conditions,WindDirDegrees,DateUTC
12:53 AM,39.9,32.0,73,30.05,10.0,Calm,Calm,-,N/A,,Mostly Cloudy,0,2012-11-02 06:53:00
1:53 AM,37.9,30.9,76,30.06,10.0,SW,4.6,-,N/A,,Clear,220,2012-11-02 07:53:00
2:53 AM,37.0,30.0,76,30.07,10.0,SSW,3.5,-,N/A,,Scattered Clouds,200,2012-11-02 08:53:00
3:53 AM,36.0,28.9,76,30.08,10.0,South,3.5,-,N/A,,Clear,180,2012-11-02 09:53:00
4:53 AM,32.0,27.0,82,30.09,10.0,Calm,Calm,-,N/A,,Clear,0,2012-11-02 10:53:00
5:53 AM,32.0,27.0,82,30.11,10.0,Calm,Calm,-,N/A,,Clear,0,2012-11-02 11:53:00
6:53 AM,33.1,27.0,78,30.14,10.0,Calm,Calm,-,N/A,,Clear,0,2012-11-02 12:53:00
7:53 AM,32.0,28.0,85,30.15,10.0,South,3.5,-,N/A,,Clear,180,2012-11-02 13:53:00
8:53 AM,33.1,27.0,78,30.17,10.0,Calm,Calm,-,N/A,,Clear,0,2012-11-02 14:53:00
9:53 AM,39.9,33.1,77,30.17,10.0,SW,3.5,-,N/A,,Clear,220,2012-11-02 15:53:00
10:53 AM,46.9,35.1,63,30.17,10.0,SE,3.5,-,N/A,,Clear,140,2012-11-02 16:53:00
11:53 AM,52.0,34.0,50,30.15,10.0,Calm,Calm,-,N/A,,Clear,0,2012-11-02 17:53:00
12:53 PM,55.0,33.1,43,30.14,10.0,Variable,3.5,-,N/A,,Clear,0,2012-11-02 18:53:00
1:53 PM,57.9,32.0,37,30.11,10.0,NNE,3.5,-,N/A,,Clear,20,2012-11-02 19:53:00
2:53 PM,59.0,28.9,32,30.08,10.0,North,6.9,-,N/A,,Clear,350,2012-11-02 20:53:00
3:53 PM,59.0,28.0,31,30.07,10.0,Calm,Calm,-,N/A,,Clear,0,2012-11-02 21:53:00
4:53 PM,57.9,28.9,33,30.09,10.0,Variable,4.6,-,N/A,,Clear,0,2012-11-02 22:53:00
5:53 PM,52.0,32.0,47,30.11,10.0,Calm,Calm,-,N/A,,Clear,0,2012-11-02 23:53:00
6:53 PM,46.9,33.1,59,30.12,10.0,Calm,Calm,-,N/A,,Clear,0,2012-11-03 00:53:00
7:53 PM,44.1,33.1,65,30.15,10.0,Calm,Calm,-,N/A,,Clear,0,2012-11-03 01:53:00
8:53 PM,41.0,33.1,73,30.15,10.0,Calm,Calm,-,N/A,,Clear,0,2012-11-03 02:53:00
9:53 PM,39.0,32.0,76,30.14,10.0,Calm,Calm,-,N/A,,Clear,0,2012-11-03 03:53:00
10:53 PM,35.1,28.9,78,30.15,10.0,South,3.5,-,N/A,,Clear,190,2012-11-03 04:53:00
11:53 PM,35.1,28.0,76,30.14,10.0,Calm,Calm,-,N/A,,Clear,0,2012-11-03 05:53:00